TimeEST,TemperatureF,Dew PointF,Humidity,Sea Level PressureIn,VisibilityMPH,Wind Direction,Wind SpeedMPH,Gust SpeedMPH,PrecipitationIn,Events,Conditions,WindDirDegrees,DateUTC
12:55 AM,47.5,45.0,91,29.99,10.0,SW,8.1,-,0.00,,Mostly Cloudy,230,2012-12-03 05:55:00
1:55 AM,47.3,44.8,91,30.00,10.0,SW,11.5,-,N/A,,Mostly Cloudy,230,2012-12-03 06:55:00
2:55 AM,45.9,44.1,93,29.99,10.0,SW,8.1,-,N/A,,Mostly Cloudy,230,2012-12-03 07:55:00
3:55 AM,45.3,43.7,94,30.00,10.0,SW,5.8,-,N/A,,Partly Cloudy,230,2012-12-03 08:55:00
4:55 AM,44.4,43.3,96,30.00,10.0,SW,6.9,-,N/A,,Clear,220,2012-12-03 09:55:00
5:55 AM,44.2,43.2,96,30.02,10.0,SW,8.1,-,N/A,,Clear,220,2012-12-03 10:55:00
6:55 AM,41.5,41.0,98,30.04,4.0,WSW,5.8,-,N/A,,Clear,250,2012-12-03 11:55:00
7:55 AM,44.8,44.4,99,30.06,7.0,West,9.2,-,N/A,,Partly Cloudy,260,2012-12-03 12:55:00
8:55 AM,47.8,45.1,90,30.09,10.0,West,8.1,-,N/A,,Mostly Cloudy,270,2012-12-03 13:55:00
9:55 AM,52.3,45.3,77,30.11,10.0,West,12.7,-,N/A,,Partly Cloudy,280,2012-12-03 14:55:00
10:55 AM,55.0,43.3,65,30.11,10.0,West,17.3,26.5,N/A,,Partly Cloudy,280,2012-12-03 15:55:00
11:55 AM,55.8,39.7,55,30.11,10.0,WNW,18.4,24.2,N/A,,Scattered Clouds,300,2012-12-03 16:55:00
12:55 PM,56.1,36.7,48,30.11,10.0,NW,21.9,27.6,N/A,,Partly Cloudy,310,2012-12-03 17:55:00
1:55 PM,55.2,35.4,47,30.12,10.0,WNW,17.3,23.0,N/A,,Mostly Cloudy,300,2012-12-03 18:55:00
2:55 PM,53.4,35.4,51,30.14,10.0,NW,12.7,-,N/A,,Mostly Cloudy,310,2012-12-03 19:55:00
3:55 PM,49.6,35.2,58,30.18,10.0,WNW,10.4,-,N/A,,Mostly Cloudy,290,2012-12-03 20:55:00
4:55 PM,44.4,34.3,68,30.19,10.0,NW,6.9,-,N/A,,Scattered Clouds,320,2012-12-03 21:55:00
5:55 PM,43.7,34.7,71,30.22,10.0,WNW,3.5,-,N/A,,Scattered Clouds,300,2012-12-03 22:55:00
6:55 PM,42.6,34.5,73,30.25,10.0,Calm,Calm,-,N/A,,Scattered Clouds,0,2012-12-03 23:55:00
7:55 PM,38.7,33.4,81,30.28,10.0,NE,3.5,-,N/A,,Partly Cloudy,50,2012-12-04 00:55:00
8:55 PM,38.7,33.6,82,30.29,10.0,Calm,Calm,-,N/A,,Clear,0,2012-12-04 01:55:00
9:55 PM,37.8,33.1,83,30.30,10.0,NE,4.6,-,N/A,,Clear,40,2012-12-04 02:55:00
10:55 PM,34.0,32.2,93,30.31,10.0,West,3.5,-,N/A,,Clear,280,2012-12-04 03:55:00
11:55 PM,31.5,30.6,96,30.31,8.0,Calm,Calm,-,N/A,,Clear,0,2012-12-04 04:55:00